{"data":{"norad_id":64874,"epoch":"2026-05-25T04:52:51.517056Z","epoch_age_seconds":47538,"freshness":"FRESH","line1":"1 64874U 25154F   26145.20337404  .00002874  00000+0  13542-3 0  9995","line2":"2 64874  97.3973 210.6465 0003294  37.1406 323.0056 15.20294150 46358","mean_motion":15.2029415,"eccentricity":0.0003294,"inclination_deg":97.3973,"raan_deg":210.6465,"arg_perigee_deg":37.1406,"mean_anomaly_deg":323.0056,"bstar":0.00013542,"rev_number":4635,"period_min":94.718512203707,"perigee_km":502.68534352591,"apogee_km":507.21992297629,"semimajor_km":6883.0896332511,"source":"CELESTRAK","updated_at":"2026-05-25T13:38:04.868763Z"}}